Time,TemperatureF,DewpointF,PressureIn,WindDirection,WindDirectionDegrees,WindSpeedMPH,WindSpeedGustMPH,Humidity,HourlyPrecipIn,Conditions,Clouds,dailyrainin,SoftwareType,DateUTC
2013-03-13 00:00:00,34.4,27.6,29.96,WSW,254,1.7,3.5,76,0.00,OVC,,0.00,WeatherDisplay:10.37,2013-03-13 04:00:00,
2013-03-13 00:05:00,34.4,27.3,29.96,WSW,254,0.9,2.3,75,0.00,OVC,,0.00,WeatherDisplay:10.37,2013-03-13 04:05:00,
2013-03-13 00:10:00,34.3,27.5,29.96,SW,222,2.7,4.6,76,0.00,OVC,,0.00,WeatherDisplay:10.37,2013-03-13 04:10:00,
2013-03-13 00:17:00,34.3,27.5,29.96,SW,224,0.0,3.5,76,0.00,OVC,,0.00,WeatherDisplay:10.37,2013-03-13 04:17:00,
2013-03-13 00:22:00,34.3,27.2,29.95,SSW,211,4.1,4.6,75,0.00,OVC,,0.00,WeatherDisplay:10.37,2013-03-13 04:22:00,
2013-03-13 00:27:00,34.2,27.4,29.95,SSW,208,3.5,3.5,76,0.00,OVC,,0.00,WeatherDisplay:10.37,2013-03-13 04:27:00,
2013-03-13 00:32:00,34.2,27.4,29.95,SW,226,2.6,4.0,76,0.00,OVC,,0.00,WeatherDisplay:10.37,2013-03-13 04:32:00,
2013-03-13 00:37:00,34.2,27.4,29.95,SSW,209,1.3,3.5,76,0.00,OVC,,0.00,WeatherDisplay:10.37,2013-03-13 04:37:00,
2013-03-13 00:42:00,34.1,27.6,29.95,SSW,209,1.9,3.5,77,0.00,OVC,,0.00,WeatherDisplay:10.37,2013-03-13 04:42:00,
2013-03-13 00:47:00,34.1,27.6,29.94,SSW,206,1.9,5.0,77,0.00,OVC,,0.00,WeatherDisplay:10.37,2013-03-13 04:47:00,
2013-03-13 00:52:00,34.1,27.6,29.94,SW,217,0.1,2.3,77,0.00,OVC,,0.00,WeatherDisplay:10.37,2013-03-13 04:52:00,
2013-03-13 00:57:00,34.1,27.6,29.94,SW,217,0.8,3.5,77,0.00,OVC,,0.00,WeatherDisplay:10.37,2013-03-13 04:57:00,
2013-03-13 01:02:00,34.0,27.9,29.94,SW,217,0.0,0.0,78,0.00,OVC,,0.00,WeatherDisplay:10.37,2013-03-13 05:02:00,
2013-03-13 01:07:00,34.0,27.9,29.94,SW,217,0.0,1.0,78,0.00,OVC,,0.00,WeatherDisplay:10.37,2013-03-13 05:07:00,
2013-03-13 01:13:00,33.9,28.1,29.94,SW,216,1.6,3.5,79,0.00,OVC,,0.00,WeatherDisplay:10.37,2013-03-13 05:13:00,
2013-03-13 01:18:00,33.9,28.1,29.94,SW,216,0.4,2.3,79,0.00,OVC,,0.00,WeatherDisplay:10.37,2013-03-13 05:18:00,
2013-03-13 01:23:00,33.8,28.0,29.94,SW,216,1.5,3.0,79,0.00,OVC,,0.00,WeatherDisplay:10.37,2013-03-13 05:23:00,
2013-03-13 01:28:00,33.7,27.9,29.94,SW,216,1.0,3.0,79,0.00,OVC,,0.00,WeatherDisplay:10.37,2013-03-13 05:28:00,
2013-03-13 01:33:00,33.7,28.2,29.94,SW,216,0.1,1.1,80,0.00,OVC,,0.00,WeatherDisplay:10.37,2013-03-13 05:33:00,
2013-03-13 01:38:00,33.7,28.2,29.94,SW,216,0.2,1.1,80,0.00,OVC,,0.00,WeatherDisplay:10.37,2013-03-13 05:38:00,
2013-03-13 01:43:00,33.6,28.4,29.94,SW,216,0.5,2.3,81,0.00,OVC,,0.00,WeatherDisplay:10.37,2013-03-13 05:43:00,
2013-03-13 01:48:00,33.6,28.1,29.94,SW,225,2.3,3.5,80,0.00,OVC,,0.00,WeatherDisplay:10.37,2013-03-13 05:48:00,
2013-03-13 01:53:00,33.6,28.1,29.94,WSW,238,1.9,3.5,80,0.00,OVC,,0.00,WeatherDisplay:10.37,2013-03-13 05:53:00,
2013-03-13 01:58:00,33.6,28.1,29.94,WSW,238,0.1,2.0,80,0.00,OVC,,0.00,WeatherDisplay:10.37,2013-03-13 05:58:00,
2013-03-13 02:03:00,33.5,27.7,29.94,WSW,238,0.3,2.0,79,0.00,OVC,,0.00,WeatherDisplay:10.37,2013-03-13 06:03:00,
2013-03-13 02:08:00,33.4,28.2,29.94,West,259,1.3,3.0,81,0.00,OVC,,0.00,WeatherDisplay:10.37,2013-03-13 06:08:00,
2013-03-13 02:13:00,33.2,28.0,29.94,West,259,0.0,0.0,81,0.00,OVC,,0.00,WeatherDisplay:10.37,2013-03-13 06:13:00,
2013-03-13 02:18:00,33.2,28.0,29.94,WSW,254,0.5,2.0,81,0.00,OVC,,0.00,WeatherDisplay:10.37,2013-03-13 06:18:00,
2013-03-13 02:23:00,33.1,28.2,29.94,WSW,254,0.0,0.0,82,0.00,OVC,,0.00,WeatherDisplay:10.37,2013-03-13 06:23:00,
2013-03-13 02:28:00,33.0,28.1,29.94,WSW,254,0.3,1.0,82,0.00,OVC,,0.00,WeatherDisplay:10.37,2013-03-13 06:28:00,
2013-03-13 02:33:00,33.0,28.1,29.94,WSW,254,0.0,0.0,82,0.00,OVC,,0.00,WeatherDisplay:10.37,2013-03-13 06:33:00,
2013-03-13 02:38:00,33.0,28.1,29.93,WSW,254,1.2,3.5,82,0.00,OVC,,0.00,WeatherDisplay:10.37,2013-03-13 06:38:00,
2013-03-13 02:43:00,32.9,28.0,29.93,WSW,252,1.3,2.3,82,0.00,OVC,,0.00,WeatherDisplay:10.37,2013-03-13 06:43:00,
2013-03-13 02:48:00,32.8,27.9,29.93,WSW,252,2.3,3.5,82,0.00,OVC,,0.00,WeatherDisplay:10.37,2013-03-13 06:48:00,
2013-03-13 02:53:00,32.6,28.0,29.92,SSW,210,1.7,4.6,83,0.00,OVC,,0.00,WeatherDisplay:10.37,2013-03-13 06:53:00,
2013-03-13 02:58:00,32.5,27.9,29.92,SSW,209,0.7,3.5,83,0.00,OVC,,0.00,WeatherDisplay:10.37,2013-03-13 06:58:00,
2013-03-13 03:03:00,32.3,27.7,29.92,SSW,209,0.8,3.5,83,0.00,OVC,,0.00,WeatherDisplay:10.37,2013-03-13 07:03:00,
2013-03-13 03:08:00,32.2,27.9,29.92,SSW,209,0.0,1.1,84,0.00,OVC,,0.00,WeatherDisplay:10.37,2013-03-13 07:08:00,
2013-03-13 03:13:00,32.0,27.7,29.92,SSW,209,0.5,1.1,84,0.00,OVC,,0.00,WeatherDisplay:10.37,2013-03-13 07:13:00,
2013-03-13 03:18:00,31.7,27.7,29.92,SSW,209,0.2,2.0,85,0.00,OVC,,0.00,WeatherDisplay:10.37,2013-03-13 07:18:00,
2013-03-13 03:23:00,31.5,27.5,29.92,SSW,209,0.8,2.3,85,0.00,OVC,,0.00,WeatherDisplay:10.37,2013-03-13 07:23:00,
2013-03-13 03:28:00,31.4,27.4,29.92,SSW,209,0.1,1.0,85,0.00,OVC,,0.00,WeatherDisplay:10.37,2013-03-13 07:28:00,
2013-03-13 03:33:00,31.2,27.5,29.92,SSW,209,1.1,3.5,86,0.00,OVC,,0.00,WeatherDisplay:10.37,2013-03-13 07:33:00,
2013-03-13 03:38:00,31.0,27.3,29.92,SSW,209,1.9,3.5,86,0.00,OVC,,0.00,WeatherDisplay:10.37,2013-03-13 07:38:00,
2013-03-13 03:43:00,30.8,27.4,29.91,SSW,209,0.5,3.5,87,0.00,OVC,,0.00,WeatherDisplay:10.37,2013-03-13 07:43:00,
2013-03-13 03:48:00,30.6,27.2,29.91,SSW,209,0.0,0.0,87,0.00,OVC,,0.00,WeatherDisplay:10.37,2013-03-13 07:48:00,
2013-03-13 03:53:00,30.5,27.4,29.91,SSW,209,1.9,3.5,88,0.00,OVC,,0.00,WeatherDisplay:10.37,2013-03-13 07:53:00,
2013-03-13 03:58:00,30.3,27.2,29.91,SSW,209,1.3,3.5,88,0.00,OVC,,0.00,WeatherDisplay:10.37,2013-03-13 07:58:00,
2013-03-13 04:03:00,30.2,27.3,29.91,SSW,209,0.0,0.0,89,0.00,BKN,,0.00,WeatherDisplay:10.37,2013-03-13 08:03:00,
2013-03-13 04:08:00,30.1,27.3,29.91,SSW,209,1.5,3.5,89,0.00,BKN,,0.00,WeatherDisplay:10.37,2013-03-13 08:08:00,
2013-03-13 04:13:00,30.0,27.2,29.90,SSW,209,1.0,2.0,89,0.00,BKN,,0.00,WeatherDisplay:10.37,2013-03-13 08:13:00,
2013-03-13 04:18:00,29.9,27.3,29.90,SSW,208,1.2,4.6,90,0.00,BKN,,0.00,WeatherDisplay:10.37,2013-03-13 08:18:00,
2013-03-13 04:23:00,29.8,27.2,29.90,SSW,208,0.9,3.5,90,0.00,BKN,,0.00,WeatherDisplay:10.37,2013-03-13 08:23:00,
2013-03-13 04:28:00,29.9,27.6,29.90,SSW,207,1.5,2.3,91,0.00,BKN,,0.00,WeatherDisplay:10.37,2013-03-13 08:28:00,
2013-03-13 04:33:00,30.0,28.0,29.90,SSW,207,1.4,3.5,92,0.00,BKN,,0.00,WeatherDisplay:10.37,2013-03-13 08:33:00,
2013-03-13 04:38:00,30.1,28.1,29.90,SSW,207,2.9,3.5,92,0.00,BKN,,0.00,WeatherDisplay:10.37,2013-03-13 08:38:00,
2013-03-13 04:43:00,30.3,28.3,29.90,SSW,207,2.7,3.5,92,0.00,BKN,,0.00,WeatherDisplay:10.37,2013-03-13 08:43:00,
2013-03-13 04:48:00,30.4,28.4,29.90,SSW,207,2.9,3.5,92,0.00,BKN,,0.00,WeatherDisplay:10.37,2013-03-13 08:48:00,
2013-03-13 04:54:00,30.6,28.8,29.90,SSW,207,2.5,3.5,93,0.00,BKN,,0.00,WeatherDisplay:10.37,2013-03-13 08:54:00,
2013-03-13 04:59:00,30.7,28.9,29.90,SSW,209,2.8,4.6,93,0.00,BKN,,0.00,WeatherDisplay:10.37,2013-03-13 08:59:00,
2013-03-13 05:04:00,30.9,29.1,29.90,SW,233,6.7,11.0,93,0.00,BKN,,0.00,WeatherDisplay:10.37,2013-03-13 09:04:00,
2013-03-13 05:09:00,31.0,29.2,29.90,WSW,247,4.6,5.8,93,0.00,BKN,,0.00,WeatherDisplay:10.37,2013-03-13 09:09:00,
2013-03-13 05:14:00,31.1,29.3,29.90,WSW,242,4.0,6.9,93,0.00,BKN,,0.00,WeatherDisplay:10.37,2013-03-13 09:14:00,
2013-03-13 05:19:00,31.1,29.6,29.90,WSW,254,1.7,2.3,94,0.00,BKN,,0.00,WeatherDisplay:10.37,2013-03-13 09:19:00,
2013-03-13 05:24:00,31.1,29.6,29.90,WSW,247,3.3,6.9,94,0.00,BKN,,0.00,WeatherDisplay:10.37,2013-03-13 09:24:00,
2013-03-13 05:29:00,31.1,29.6,29.90,WSW,238,3.8,5.0,94,0.00,BKN,,0.00,WeatherDisplay:10.37,2013-03-13 09:29:00,
2013-03-13 05:34:00,31.0,29.7,29.90,West,268,4.1,8.0,95,0.00,BKN,,0.00,WeatherDisplay:10.37,2013-03-13 09:34:00,
2013-03-13 05:39:00,31.0,29.7,29.90,WSW,244,2.1,3.5,95,0.00,BKN,,0.00,WeatherDisplay:10.37,2013-03-13 09:39:00,
2013-03-13 05:44:00,31.0,29.7,29.90,SW,232,3.5,5.8,95,0.00,BKN,,0.00,WeatherDisplay:10.37,2013-03-13 09:44:00,
2013-03-13 05:49:00,30.9,29.6,29.90,West,259,2.9,4.0,95,0.00,BKN,,0.00,WeatherDisplay:10.37,2013-03-13 09:49:00,
2013-03-13 05:54:00,30.9,29.6,29.90,WSW,248,2.8,3.5,95,0.00,BKN,,0.00,WeatherDisplay:10.37,2013-03-13 09:54:00,
2013-03-13 05:59:00,30.9,29.6,29.90,WSW,248,2.2,4.6,95,0.00,BKN,,0.00,WeatherDisplay:10.37,2013-03-13 09:59:00,
2013-03-13 06:04:00,30.9,29.9,29.90,WSW,247,1.6,2.3,96,0.00,-SN,,0.00,WeatherDisplay:10.37,2013-03-13 10:04:00,
2013-03-13 06:09:00,31.0,30.0,29.90,WSW,247,2.4,3.5,96,0.00,-SN,,0.00,WeatherDisplay:10.37,2013-03-13 10:09:00,
2013-03-13 06:14:00,31.0,30.0,29.90,WSW,251,3.0,4.6,96,0.00,-SN,,0.00,WeatherDisplay:10.37,2013-03-13 10:14:00,
2013-03-13 06:19:00,31.0,30.0,29.90,WSW,251,2.5,3.5,96,0.00,-SN,,0.00,WeatherDisplay:10.37,2013-03-13 10:19:00,
2013-03-13 06:24:00,30.9,29.9,29.90,SW,235,3.4,7.0,96,0.00,-SN,,0.00,WeatherDisplay:10.37,2013-03-13 10:24:00,
2013-03-13 06:29:00,30.8,29.5,29.90,WSW,243,2.5,3.5,95,0.00,-SN,,0.00,WeatherDisplay:10.37,2013-03-13 10:29:00,
2013-03-13 06:34:00,30.7,29.4,29.90,WSW,252,3.2,3.5,95,0.00,-SN,,0.00,WeatherDisplay:10.37,2013-03-13 10:34:00,
2013-03-13 06:39:00,30.6,29.3,29.90,WSW,252,1.7,3.5,95,0.00,-SN,,0.00,WeatherDisplay:10.37,2013-03-13 10:39:00,
2013-03-13 06:44:00,30.5,29.2,29.90,SW,230,3.0,4.6,95,0.00,-SN,,0.00,WeatherDisplay:10.37,2013-03-13 10:44:00,
2013-03-13 06:49:00,30.5,29.2,29.90,SW,236,0.7,2.3,95,0.00,-SN,,0.00,WeatherDisplay:10.37,2013-03-13 10:49:00,
2013-03-13 06:54:00,30.5,29.2,29.90,SW,236,1.3,3.5,95,0.00,-SN,,0.00,WeatherDisplay:10.37,2013-03-13 10:54:00,
2013-03-13 06:59:00,30.4,29.1,29.90,SW,236,2.2,3.5,95,0.00,-SN,,0.00,WeatherDisplay:10.37,2013-03-13 10:59:00,
2013-03-13 07:04:00,30.4,29.1,29.90,SW,236,2.1,3.5,95,0.00,-SN,,0.00,WeatherDisplay:10.37,2013-03-13 11:04:00,
2013-03-13 07:09:00,30.4,29.1,29.90,SW,233,1.6,3.5,95,0.00,-SN,,0.00,WeatherDisplay:10.37,2013-03-13 11:09:00,
2013-03-13 07:14:00,30.4,29.1,29.90,WSW,238,1.7,3.5,95,0.00,-SN,,0.00,WeatherDisplay:10.37,2013-03-13 11:14:00,
2013-03-13 07:19:00,30.5,29.2,29.90,WSW,238,2.3,3.5,95,0.00,-SN,,0.00,WeatherDisplay:10.37,2013-03-13 11:19:00,
2013-03-13 07:24:00,30.4,29.1,29.90,WSW,251,2.0,4.6,95,0.00,-SN,,0.00,WeatherDisplay:10.37,2013-03-13 11:24:00,
2013-03-13 07:29:00,30.4,28.9,29.90,WSW,251,1.4,2.3,94,0.00,-SN,,0.00,WeatherDisplay:10.37,2013-03-13 11:29:00,
2013-03-13 07:34:00,30.4,28.9,29.91,WSW,240,5.1,8.1,94,0.00,-SN,,0.00,WeatherDisplay:10.37,2013-03-13 11:34:00,
2013-03-13 07:39:00,30.5,29.0,29.91,WSW,250,1.6,2.3,94,0.00,-SN,,0.00,WeatherDisplay:10.37,2013-03-13 11:39:00,
2013-03-13 07:44:00,30.5,29.0,29.91,WSW,257,2.6,3.5,94,0.00,-SN,,0.00,WeatherDisplay:10.37,2013-03-13 11:44:00,
2013-03-13 07:49:00,30.6,28.8,29.91,WSW,245,4.4,6.9,93,0.00,-SN,,0.00,WeatherDisplay:10.37,2013-03-13 11:49:00,
2013-03-13 07:54:00,30.7,28.9,29.91,WSW,241,2.7,5.8,93,0.00,-SN,,0.00,WeatherDisplay:10.37,2013-03-13 11:54:00,
2013-03-13 07:59:00,30.7,28.7,29.91,WSW,245,2.3,4.6,92,0.00,-SN,,0.00,WeatherDisplay:10.37,2013-03-13 11:59:00,
2013-03-13 08:04:00,30.8,28.8,29.91,WSW,244,3.8,4.6,92,0.00,OVC,,0.00,WeatherDisplay:10.37,2013-03-13 12:04:00,
2013-03-13 08:09:00,30.8,28.5,29.91,West,277,4.0,6.9,91,0.00,OVC,,0.00,WeatherDisplay:10.37,2013-03-13 12:09:00,
2013-03-13 08:14:00,30.9,28.6,29.91,WSW,255,3.8,5.8,91,0.00,OVC,,0.00,WeatherDisplay:10.37,2013-03-13 12:14:00,
2013-03-13 08:19:00,31.0,28.4,29.91,SW,227,3.2,5.8,90,0.00,OVC,,0.00,WeatherDisplay:10.37,2013-03-13 12:19:00,
2013-03-13 08:24:00,31.0,28.4,29.91,WSW,257,3.5,4.6,90,0.00,OVC,,0.00,WeatherDisplay:10.37,2013-03-13 12:24:00,
2013-03-13 08:29:00,31.0,28.1,29.91,WSW,252,5.0,6.9,89,0.00,OVC,,0.00,WeatherDisplay:10.37,2013-03-13 12:29:00,
2013-03-13 08:34:00,31.2,28.3,29.91,WSW,257,4.8,6.9,89,0.00,OVC,,0.00,WeatherDisplay:10.37,2013-03-13 12:34:00,
2013-03-13 08:39:00,31.2,28.1,29.91,WSW,254,2.0,3.5,88,0.00,OVC,,0.00,WeatherDisplay:10.37,2013-03-13 12:39:00,
2013-03-13 08:44:00,31.3,28.2,29.91,WSW,256,6.2,11.5,88,0.00,OVC,,0.00,WeatherDisplay:10.37,2013-03-13 12:44:00,
2013-03-13 08:49:00,31.4,28.3,29.91,WSW,252,3.4,6.9,88,0.00,OVC,,0.00,WeatherDisplay:10.37,2013-03-13 12:49:00,
2013-03-13 08:54:00,31.4,28.3,29.91,WSW,248,3.8,5.8,88,0.00,OVC,,0.00,WeatherDisplay:10.37,2013-03-13 12:54:00,
2013-03-13 08:59:00,31.4,28.3,29.91,NW,315,3.2,4.6,88,0.00,OVC,,0.00,WeatherDisplay:10.37,2013-03-13 12:59:00,
2013-03-13 09:04:00,31.4,28.3,29.92,West,275,3.7,5.8,88,0.00,-SN,,0.00,WeatherDisplay:10.37,2013-03-13 13:04:00,
2013-03-13 09:09:00,31.3,28.7,29.92,NW,317,3.9,7.0,90,0.00,-SN,,0.00,WeatherDisplay:10.37,2013-03-13 13:09:00,
2013-03-13 09:14:00,30.7,28.7,29.92,WNW,289,5.8,10.4,92,0.00,-SN,,0.00,WeatherDisplay:10.37,2013-03-13 13:14:00,
2013-03-13 09:19:00,30.2,28.4,29.92,West,259,5.1,11.5,93,0.00,-SN,,0.00,WeatherDisplay:10.37,2013-03-13 13:19:00,
2013-03-13 09:24:00,29.8,28.0,29.92,West,262,4.9,5.8,93,0.00,-SN,,0.00,WeatherDisplay:10.37,2013-03-13 13:24:00,
2013-03-13 09:29:00,29.9,28.1,29.92,West,272,7.7,11.5,93,0.00,-SN,,0.00,WeatherDisplay:10.37,2013-03-13 13:29:00,
2013-03-13 09:34:00,30.0,28.0,29.92,WSW,242,3.8,4.6,92,0.00,-SN,,0.00,WeatherDisplay:10.37,2013-03-13 13:34:00,
2013-03-13 09:39:00,30.3,28.0,29.92,West,270,5.6,9.2,91,0.00,-SN,,0.00,WeatherDisplay:10.37,2013-03-13 13:39:00,
2013-03-13 09:44:00,30.5,27.6,29.92,West,267,5.0,6.9,89,0.00,-SN,,0.00,WeatherDisplay:10.37,2013-03-13 13:44:00,
2013-03-13 09:49:00,30.7,27.6,29.93,WSW,248,6.2,10.4,88,0.00,-SN,,0.00,WeatherDisplay:10.37,2013-03-13 13:49:00,
2013-03-13 09:54:00,31.0,27.3,29.93,WSW,252,6.0,11.5,86,0.00,-SN,,0.00,WeatherDisplay:10.37,2013-03-13 13:54:00,
2013-03-13 09:59:00,31.2,26.9,29.93,West,260,10.0,17.3,84,0.00,-SN,,0.00,WeatherDisplay:10.37,2013-03-13 13:59:00,
2013-03-13 10:04:00,31.6,26.7,29.93,West,269,10.6,18.4,82,0.00,-SN,,0.00,WeatherDisplay:10.37,2013-03-13 14:04:00,
2013-03-13 10:09:00,31.9,26.4,29.93,West,275,11.4,19.6,80,0.00,-SN,,0.00,WeatherDisplay:10.37,2013-03-13 14:09:00,
2013-03-13 10:14:00,32.1,26.0,29.93,WNW,296,6.8,11.5,78,0.00,-SN,,0.00,WeatherDisplay:10.37,2013-03-13 14:14:00,
2013-03-13 10:19:00,32.2,25.5,29.93,West,274,11.3,15.0,76,0.00,-SN,,0.00,WeatherDisplay:10.37,2013-03-13 14:19:00,
2013-03-13 10:24:00,32.3,25.6,29.93,WNW,303,5.1,11.5,76,0.00,-SN,,0.00,WeatherDisplay:10.37,2013-03-13 14:24:00,
2013-03-13 10:29:00,32.3,25.3,29.93,West,281,5.9,8.1,75,0.00,-SN,,0.00,WeatherDisplay:10.37,2013-03-13 14:29:00,
2013-03-13 10:34:00,32.4,25.4,29.94,WNW,298,9.3,13.8,75,0.00,-SN,,0.00,WeatherDisplay:10.37,2013-03-13 14:34:00,
2013-03-13 10:39:00,32.4,24.7,29.94,West,273,5.7,6.9,73,0.01,-SN,,0.01,WeatherDisplay:10.37,2013-03-13 14:39:00,
2013-03-13 10:44:00,32.5,25.8,29.94,NNW,331,5.7,9.2,76,0.01,-SN,,0.01,WeatherDisplay:10.37,2013-03-13 14:44:00,
2013-03-13 10:49:00,32.5,25.5,29.95,WSW,252,9.2,15.0,75,0.01,-SN,,0.01,WeatherDisplay:10.37,2013-03-13 14:49:00,
2013-03-13 10:54:00,32.3,24.9,29.95,NNE,21,8.0,18.0,74,0.01,-SN,,0.01,WeatherDisplay:10.37,2013-03-13 14:54:00,
2013-03-13 10:59:00,32.3,25.3,29.95,NW,319,4.9,10.4,75,0.01,-SN,,0.01,WeatherDisplay:10.37,2013-03-13 14:59:00,
2013-03-13 11:04:00,32.3,25.3,29.95,West,279,8.5,14.0,75,0.01,OVC,,0.01,WeatherDisplay:10.37,2013-03-13 15:04:00,
2013-03-13 11:09:00,32.1,24.7,29.95,WNW,291,6.7,9.2,74,0.01,OVC,,0.01,WeatherDisplay:10.37,2013-03-13 15:09:00,
2013-03-13 11:14:00,32.1,25.1,29.95,West,273,7.0,9.0,75,0.01,OVC,,0.01,WeatherDisplay:10.37,2013-03-13 15:14:00,
2013-03-13 11:19:00,32.1,25.1,29.95,WNW,296,6.8,9.2,75,0.01,OVC,,0.01,WeatherDisplay:10.37,2013-03-13 15:19:00,
2013-03-13 11:24:00,32.2,25.2,29.95,NNW,327,6.0,11.5,75,0.01,OVC,,0.01,WeatherDisplay:10.37,2013-03-13 15:24:00,
2013-03-13 11:29:00,32.3,24.9,29.95,NW,308,6.8,12.0,74,0.01,OVC,,0.01,WeatherDisplay:10.37,2013-03-13 15:29:00,
2013-03-13 11:34:00,32.4,25.0,29.96,NW,317,7.5,11.5,74,0.01,OVC,,0.01,WeatherDisplay:10.37,2013-03-13 15:34:00,
2013-03-13 11:39:00,32.3,24.6,29.96,WNW,287,6.0,11.5,73,0.00,OVC,,0.01,WeatherDisplay:10.37,2013-03-13 15:39:00,
2013-03-13 11:44:00,32.2,23.8,29.96,West,272,5.5,11.5,71,0.00,OVC,,0.01,WeatherDisplay:10.37,2013-03-13 15:44:00,
2013-03-13 11:49:00,32.3,24.3,29.96,West,276,6.2,10.4,72,0.00,OVC,,0.01,WeatherDisplay:10.37,2013-03-13 15:49:00,
2013-03-13 11:54:00,32.8,24.8,29.96,WSW,250,6.0,8.1,72,0.00,OVC,,0.01,WeatherDisplay:10.37,2013-03-13 15:54:00,
2013-03-13 11:59:00,33.0,24.3,29.96,NNW,328,6.2,11.5,70,0.00,OVC,,0.01,WeatherDisplay:10.37,2013-03-13 15:59:00,
2013-03-13 12:04:00,33.0,23.9,29.96,NW,315,10.1,12.7,69,0.00,OVC,,0.01,WeatherDisplay:10.37,2013-03-13 16:04:00,
2013-03-13 12:09:00,32.8,24.8,29.96,WSW,252,7.3,10.4,72,0.00,OVC,,0.01,WeatherDisplay:10.37,2013-03-13 16:09:00,
2013-03-13 12:14:00,32.9,24.5,29.96,NW,306,6.5,18.4,71,0.00,OVC,,0.01,WeatherDisplay:10.37,2013-03-13 16:14:00,
2013-03-13 12:19:00,33.2,24.8,29.96,NW,313,7.6,16.0,71,0.00,OVC,,0.01,WeatherDisplay:10.37,2013-03-13 16:19:00,
2013-03-13 12:24:00,33.5,23.7,29.96,WNW,293,7.7,16.1,67,0.00,OVC,,0.01,WeatherDisplay:10.37,2013-03-13 16:24:00,
2013-03-13 12:29:00,33.2,23.1,29.96,WNW,288,7.7,12.7,66,0.00,OVC,,0.01,WeatherDisplay:10.37,2013-03-13 16:29:00,
2013-03-13 12:34:00,32.9,23.8,29.96,NW,313,9.2,17.3,69,0.00,OVC,,0.01,WeatherDisplay:10.37,2013-03-13 16:34:00,
2013-03-13 12:39:00,32.6,24.9,29.97,WNW,289,6.3,11.5,73,0.00,OVC,,0.01,WeatherDisplay:10.37,2013-03-13 16:39:00,
2013-03-13 12:44:00,32.3,25.3,29.96,West,271,7.7,14.0,75,0.00,OVC,,0.01,WeatherDisplay:10.37,2013-03-13 16:44:00,
2013-03-13 12:49:00,32.3,24.6,29.97,NW,304,5.3,8.1,73,0.00,OVC,,0.01,WeatherDisplay:10.37,2013-03-13 16:49:00,
2013-03-13 12:54:00,32.3,25.3,29.97,WNW,302,8.7,16.0,75,0.00,OVC,,0.01,WeatherDisplay:10.37,2013-03-13 16:54:00,
2013-03-13 12:59:00,32.1,26.0,29.97,WNW,295,5.0,8.1,78,0.00,OVC,,0.01,WeatherDisplay:10.37,2013-03-13 16:59:00,
2013-03-13 13:04:00,31.9,26.7,29.97,West,279,4.4,5.8,81,0.00,OVC,,0.01,WeatherDisplay:10.37,2013-03-13 17:04:00,
2013-03-13 13:09:00,32.0,26.5,29.97,WNW,291,5.9,11.0,80,0.00,OVC,,0.01,WeatherDisplay:10.37,2013-03-13 17:09:00,
2013-03-13 13:14:00,32.3,27.1,29.97,WNW,292,8.1,11.5,81,0.00,OVC,,0.01,WeatherDisplay:10.37,2013-03-13 17:14:00,
2013-03-13 13:19:00,32.8,27.0,29.97,WSW,258,9.0,11.5,79,0.00,OVC,,0.01,WeatherDisplay:10.37,2013-03-13 17:19:00,
2013-03-13 13:24:00,32.6,26.5,29.99,WNW,302,10.1,18.4,78,0.00,OVC,,0.01,WeatherDisplay:10.37,2013-03-13 17:24:00,
2013-03-13 13:29:00,30.1,26.4,29.99,NW,309,6.2,10.4,86,0.00,OVC,,0.01,WeatherDisplay:10.37,2013-03-13 17:29:00,
2013-03-13 13:34:00,28.5,25.7,29.99,NW,311,7.6,13.8,89,0.00,OVC,,0.01,WeatherDisplay:10.37,2013-03-13 17:34:00,
2013-03-13 13:39:00,28.0,26.0,29.99,WNW,297,8.8,14.0,92,0.00,OVC,,0.01,WeatherDisplay:10.37,2013-03-13 17:39:00,
2013-03-13 13:44:00,28.0,26.2,29.99,WNW,289,5.1,11.5,93,0.00,OVC,,0.01,WeatherDisplay:10.37,2013-03-13 17:44:00,
2013-03-13 13:49:00,28.4,26.9,29.99,NW,313,8.0,12.7,94,0.00,OVC,,0.01,WeatherDisplay:10.37,2013-03-13 17:49:00,
2013-03-13 13:54:00,28.8,27.3,29.99,NW,318,6.7,11.5,94,0.00,OVC,,0.01,WeatherDisplay:10.37,2013-03-13 17:54:00,
2013-03-13 13:59:00,29.4,27.4,29.99,WNW,298,6.3,9.0,92,0.00,OVC,,0.01,WeatherDisplay:10.37,2013-03-13 17:59:00,
2013-03-13 14:04:00,29.8,27.2,29.99,NNW,342,7.8,11.5,90,0.00, +SN,,0.01,WeatherDisplay:10.37,2013-03-13 18:04:00,
2013-03-13 14:09:00,30.1,25.8,29.99,West,267,11.1,19.6,84,0.00, +SN,,0.01,WeatherDisplay:10.37,2013-03-13 18:09:00,
2013-03-13 14:14:00,30.3,24.0,29.99,WNW,300,11.0,20.7,77,0.00, +SN,,0.01,WeatherDisplay:10.37,2013-03-13 18:14:00,
2013-03-13 14:19:00,30.6,23.9,29.99,NW,312,6.6,9.2,76,0.00, +SN,,0.01,WeatherDisplay:10.37,2013-03-13 18:19:00,
2013-03-13 14:24:00,30.9,24.2,29.99,WNW,302,9.0,12.7,76,0.00, +SN,,0.01,WeatherDisplay:10.37,2013-03-13 18:24:00,
2013-03-13 14:29:00,31.1,23.5,30.00,NW,315,11.8,25.3,73,0.00, +SN,,0.01,WeatherDisplay:10.37,2013-03-13 18:29:00,
2013-03-13 14:34:00,31.3,23.3,30.00,NNW,341,6.6,14.0,72,0.01, +SN,,0.02,WeatherDisplay:10.37,2013-03-13 18:34:00,
2013-03-13 14:39:00,31.2,22.5,30.00,NNW,346,10.9,16.1,70,0.01, +SN,,0.02,WeatherDisplay:10.37,2013-03-13 18:39:00,
2013-03-13 14:44:00,31.0,22.7,30.00,NNW,338,9.1,13.8,71,0.01, +SN,,0.02,WeatherDisplay:10.37,2013-03-13 18:44:00,
2013-03-13 14:49:00,31.0,22.4,30.00,WSW,258,7.6,11.5,70,0.01, +SN,,0.02,WeatherDisplay:10.37,2013-03-13 18:49:00,
2013-03-13 14:54:00,31.0,22.7,30.00,WNW,291,8.0,15.0,71,0.01, +SN,,0.02,WeatherDisplay:10.37,2013-03-13 18:54:00,
2013-03-13 14:59:00,30.9,21.6,30.00,NW,317,8.6,19.0,68,0.01, +SN,,0.02,WeatherDisplay:10.37,2013-03-13 18:59:00,
2013-03-13 15:04:00,30.7,21.4,30.00,WNW,283,7.6,12.0,68,0.01,-SN,,0.02,WeatherDisplay:10.37,2013-03-13 19:04:00,
2013-03-13 15:09:00,30.6,20.2,30.00,NNW,333,8.3,11.5,65,0.01,-SN,,0.02,WeatherDisplay:10.37,2013-03-13 19:09:00,
2013-03-13 15:14:00,30.7,21.0,30.00,WNW,294,13.0,19.6,67,0.01,-SN,,0.02,WeatherDisplay:10.37,2013-03-13 19:14:00,
2013-03-13 15:19:00,31.2,21.2,30.00,NW,324,9.8,19.6,66,0.01,-SN,,0.02,WeatherDisplay:10.37,2013-03-13 19:19:00,
2013-03-13 15:24:00,31.4,22.1,30.01,West,275,8.7,15.0,68,0.01,-SN,,0.02,WeatherDisplay:10.37,2013-03-13 19:24:00,
2013-03-13 15:29:00,31.3,20.9,30.01,NNW,336,9.7,16.0,65,0.01,-SN,,0.02,WeatherDisplay:10.37,2013-03-13 19:29:00,
2013-03-13 15:34:00,30.9,21.2,30.01,NW,326,6.6,9.2,67,0.00,-SN,,0.02,WeatherDisplay:10.37,2013-03-13 19:34:00,
2013-03-13 15:39:00,30.6,20.6,30.01,WNW,294,13.3,19.6,66,0.00,-SN,,0.02,WeatherDisplay:10.37,2013-03-13 19:39:00,
2013-03-13 15:44:00,30.3,20.6,30.02,WNW,290,5.8,11.5,67,0.00,-SN,,0.02,WeatherDisplay:10.37,2013-03-13 19:44:00,
2013-03-13 15:49:00,30.3,20.6,30.02,WNW,299,6.8,13.8,67,0.00,-SN,,0.02,WeatherDisplay:10.37,2013-03-13 19:49:00,
2013-03-13 15:54:00,30.2,19.8,30.02,WNW,286,11.9,16.1,65,0.00,-SN,,0.02,WeatherDisplay:10.37,2013-03-13 19:54:00,
2013-03-13 15:59:00,29.9,18.5,30.02,WNW,285,12.5,19.6,62,0.00,-SN,,0.02,WeatherDisplay:10.37,2013-03-13 19:59:00,
2013-03-13 16:04:00,29.7,18.6,30.02,WNW,298,7.8,11.5,63,0.00,-SN,,0.02,WeatherDisplay:10.37,2013-03-13 20:04:00,
2013-03-13 16:09:00,29.6,18.2,30.02,WNW,302,8.7,19.6,62,0.00,-SN,,0.02,WeatherDisplay:10.37,2013-03-13 20:09:00,
2013-03-13 16:14:00,29.7,18.6,30.02,WNW,293,10.7,14.0,63,0.00,-SN,,0.02,WeatherDisplay:10.37,2013-03-13 20:14:00,
2013-03-13 16:19:00,29.9,18.5,30.02,NW,305,11.0,19.6,62,0.00,-SN,,0.02,WeatherDisplay:10.37,2013-03-13 20:19:00,
2013-03-13 16:24:00,30.0,18.9,30.02,West,268,5.7,13.8,63,0.00,-SN,,0.02,WeatherDisplay:10.37,2013-03-13 20:24:00,
2013-03-13 16:29:00,30.2,20.2,30.03,NNW,339,13.0,21.9,66,0.00,-SN,,0.02,WeatherDisplay:10.37,2013-03-13 20:29:00,
2013-03-13 16:34:00,30.0,21.1,30.03,West,281,6.8,9.2,69,0.00,-SN,,0.02,WeatherDisplay:10.37,2013-03-13 20:34:00,
2013-03-13 16:39:00,30.1,21.2,30.03,WNW,284,5.9,11.5,69,0.00,-SN,,0.02,WeatherDisplay:10.37,2013-03-13 20:39:00,
2013-03-13 16:44:00,30.1,20.8,30.03,West,280,7.6,11.5,68,0.00,-SN,,0.02,WeatherDisplay:10.37,2013-03-13 20:44:00,
2013-03-13 16:49:00,30.3,21.7,30.03,WNW,294,6.1,9.2,70,0.00,-SN,,0.02,WeatherDisplay:10.37,2013-03-13 20:49:00,
2013-03-13 16:54:00,30.7,21.7,30.04,NW,304,6.3,9.2,69,0.00,-SN,,0.02,WeatherDisplay:10.37,2013-03-13 20:54:00,
2013-03-13 16:59:00,30.9,21.9,30.04,WNW,296,5.6,8.1,69,0.00,-SN,,0.02,WeatherDisplay:10.37,2013-03-13 20:59:00,
2013-03-13 17:04:00,30.8,21.8,30.04,NNW,345,9.2,15.0,69,0.00,OVC,,0.02,WeatherDisplay:10.37,2013-03-13 21:04:00,
2013-03-13 17:09:00,30.3,22.7,30.05,NW,320,6.3,9.2,73,0.00,OVC,,0.02,WeatherDisplay:10.37,2013-03-13 21:09:00,
2013-03-13 17:14:00,29.9,23.6,30.05,NW,319,4.7,9.2,77,0.00,OVC,,0.02,WeatherDisplay:10.37,2013-03-13 21:14:00,
2013-03-13 17:19:00,29.5,23.8,30.05,West,280,9.4,16.1,79,0.00,OVC,,0.02,WeatherDisplay:10.37,2013-03-13 21:19:00,
2013-03-13 17:24:00,29.1,23.7,30.06,West,263,7.3,11.0,80,0.00,OVC,,0.02,WeatherDisplay:10.37,2013-03-13 21:24:00,
2013-03-13 17:29:00,28.7,24.8,30.05,WNW,290,6.6,8.1,85,0.00,OVC,,0.02,WeatherDisplay:10.37,2013-03-13 21:29:00,
2013-03-13 17:34:00,28.4,25.0,30.05,NW,323,6.1,11.5,87,0.00,OVC,,0.02,WeatherDisplay:10.37,2013-03-13 21:34:00,
2013-03-13 17:39:00,28.4,24.5,30.05,WNW,294,6.2,11.5,85,0.00,OVC,,0.02,WeatherDisplay:10.37,2013-03-13 21:39:00,
2013-03-13 17:44:00,28.6,24.7,30.05,WNW,298,5.5,9.2,85,0.00,OVC,,0.02,WeatherDisplay:10.37,2013-03-13 21:44:00,
2013-03-13 17:49:00,28.8,24.3,30.05,NW,304,2.1,5.8,83,0.00,OVC,,0.02,WeatherDisplay:10.37,2013-03-13 21:49:00,
2013-03-13 17:54:00,28.8,24.6,30.05,NNW,331,5.6,8.1,84,0.00,OVC,,0.02,WeatherDisplay:10.37,2013-03-13 21:54:00,
2013-03-13 17:59:00,28.7,24.8,30.06,WNW,289,4.9,11.5,85,0.00,OVC,,0.02,WeatherDisplay:10.37,2013-03-13 21:59:00,
2013-03-13 18:04:00,28.5,25.1,30.06,WNW,302,6.1,8.1,87,0.00,-SN,,0.02,WeatherDisplay:10.37,2013-03-13 22:04:00,
2013-03-13 18:09:00,28.2,25.6,30.06,WNW,298,8.7,12.7,90,0.00,-SN,,0.02,WeatherDisplay:10.37,2013-03-13 22:09:00,
2013-03-13 18:14:00,27.8,25.5,30.06,NW,309,5.3,5.8,91,0.00,-SN,,0.02,WeatherDisplay:10.37,2013-03-13 22:14:00,
2013-03-13 18:19:00,27.5,25.2,30.06,WNW,284,4.7,11.5,91,0.00,-SN,,0.02,WeatherDisplay:10.37,2013-03-13 22:19:00,
2013-03-13 18:24:00,27.5,25.5,30.06,NW,309,8.1,13.8,92,0.00,-SN,,0.02,WeatherDisplay:10.37,2013-03-13 22:24:00,
2013-03-13 18:29:00,27.5,25.5,30.07,WNW,283,8.4,16.1,92,0.00,-SN,,0.02,WeatherDisplay:10.37,2013-03-13 22:29:00,
2013-03-13 18:34:00,27.5,25.5,30.07,West,278,7.1,11.5,92,0.00,-SN,,0.02,WeatherDisplay:10.37,2013-03-13 22:34:00,
2013-03-13 18:39:00,27.5,25.2,30.07,WNW,303,5.2,9.2,91,0.00,-SN,,0.02,WeatherDisplay:10.37,2013-03-13 22:39:00,
2013-03-13 18:44:00,27.6,25.3,30.07,WNW,285,5.8,11.5,91,0.00,-SN,,0.02,WeatherDisplay:10.37,2013-03-13 22:44:00,
2013-03-13 18:49:00,27.7,25.2,30.07,West,269,6.6,13.8,90,0.00,-SN,,0.02,WeatherDisplay:10.37,2013-03-13 22:49:00,
2013-03-13 18:54:00,27.7,24.9,30.07,WNW,284,4.2,9.2,89,0.00,-SN,,0.02,WeatherDisplay:10.37,2013-03-13 22:54:00,
2013-03-13 18:59:00,27.6,24.8,30.08,NW,304,6.2,11.5,89,0.00,-SN,,0.02,WeatherDisplay:10.37,2013-03-13 22:59:00,
2013-03-13 19:04:00,27.5,24.4,30.07,NW,305,6.9,15.0,88,0.00,-SN,,0.02,WeatherDisplay:10.37,2013-03-13 23:04:00,
2013-03-13 19:09:00,27.5,24.1,30.08,WNW,294,5.8,8.1,87,0.00,-SN,,0.02,WeatherDisplay:10.37,2013-03-13 23:09:00,
2013-03-13 19:14:00,27.5,24.4,30.08,WNW,303,9.6,11.5,88,0.00,-SN,,0.02,WeatherDisplay:10.37,2013-03-13 23:14:00,
2013-03-13 19:19:00,27.4,24.6,30.08,NNW,335,8.6,11.5,89,0.00,-SN,,0.02,WeatherDisplay:10.37,2013-03-13 23:19:00,
2013-03-13 19:24:00,27.3,24.8,30.08,WNW,289,6.3,7.0,90,0.00,-SN,,0.02,WeatherDisplay:10.37,2013-03-13 23:24:00,
2013-03-13 19:29:00,27.2,24.9,30.08,WNW,300,4.0,8.1,91,0.00,-SN,,0.02,WeatherDisplay:10.37,2013-03-13 23:29:00,
2013-03-13 19:34:00,27.0,25.0,30.09,NW,310,3.0,5.8,92,0.00,-SN,,0.02,WeatherDisplay:10.37,2013-03-13 23:34:00,
2013-03-13 19:39:00,26.9,24.9,30.08,West,280,6.6,6.6,92,0.00,-SN,,0.02,WeatherDisplay:10.37,2013-03-13 23:39:00,
2013-03-13 19:44:00,26.7,24.9,30.08,WNW,298,4.9,7.0,93,0.00,-SN,,0.02,WeatherDisplay:10.37,2013-03-13 23:44:00,
2013-03-13 19:49:00,26.6,24.8,30.09,WNW,303,7.2,11.5,93,0.00,-SN,,0.02,WeatherDisplay:10.37,2013-03-13 23:49:00,
2013-03-13 19:54:00,26.6,24.6,30.09,WNW,300,4.5,5.8,92,0.00,-SN,,0.02,WeatherDisplay:10.37,2013-03-13 23:54:00,
2013-03-13 19:59:00,26.6,24.6,30.09,NW,315,6.6,11.5,92,0.00,-SN,,0.02,WeatherDisplay:10.37,2013-03-13 23:59:00,
2013-03-13 20:04:00,26.7,24.4,30.09,WNW,303,6.8,15.0,91,0.00,-SN,,0.02,WeatherDisplay:10.37,2013-03-14 00:04:00,
2013-03-13 20:09:00,26.7,24.4,30.09,WNW,292,6.7,8.1,91,0.00,-SN,,0.02,WeatherDisplay:10.37,2013-03-14 00:09:00,
2013-03-13 20:14:00,26.7,24.4,30.09,WNW,290,5.3,6.9,91,0.00,-SN,,0.02,WeatherDisplay:10.37,2013-03-14 00:14:00,
2013-03-13 20:19:00,26.9,24.4,30.10,West,270,4.5,8.0,90,0.00,-SN,,0.02,WeatherDisplay:10.37,2013-03-14 00:19:00,
2013-03-13 20:24:00,27.1,24.3,30.10,NW,307,4.9,11.5,89,0.00,-SN,,0.02,WeatherDisplay:10.37,2013-03-14 00:24:00,
2013-03-13 20:29:00,27.1,24.0,30.10,West,263,4.2,10.4,88,0.00,-SN,,0.02,WeatherDisplay:10.37,2013-03-14 00:29:00,
2013-03-13 20:34:00,27.2,24.1,30.10,NW,304,5.9,8.1,88,0.00,-SN,,0.02,WeatherDisplay:10.37,2013-03-14 00:34:00,
2013-03-13 20:39:00,27.2,24.1,30.10,WNW,291,5.2,6.9,88,0.00,-SN,,0.02,WeatherDisplay:10.37,2013-03-14 00:39:00,
2013-03-13 20:44:00,27.3,24.2,30.10,WNW,295,4.8,8.1,88,0.00,-SN,,0.02,WeatherDisplay:10.37,2013-03-14 00:44:00,
2013-03-13 20:49:00,27.4,24.3,30.10,NW,304,3.3,5.8,88,0.00,-SN,,0.02,WeatherDisplay:10.37,2013-03-14 00:49:00,
2013-03-13 20:54:00,27.4,24.3,30.10,West,263,4.8,16.1,88,0.00,-SN,,0.02,WeatherDisplay:10.37,2013-03-14 00:54:00,
2013-03-13 20:59:00,27.4,24.0,30.10,WNW,290,1.2,3.5,87,0.00,-SN,,0.02,WeatherDisplay:10.37,2013-03-14 00:59:00,
2013-03-13 21:04:00,27.4,24.3,30.10,WNW,300,5.5,10.4,88,0.00,-SN,,0.02,WeatherDisplay:10.37,2013-03-14 01:04:00,
2013-03-13 21:09:00,27.5,24.1,30.10,WNW,287,4.9,8.1,87,0.00,-SN,,0.02,WeatherDisplay:10.37,2013-03-14 01:09:00,
2013-03-13 21:14:00,27.5,24.1,30.10,NW,309,5.4,5.8,87,0.00,-SN,,0.02,WeatherDisplay:10.37,2013-03-14 01:14:00,
2013-03-13 21:19:00,27.5,23.9,30.10,WNW,284,4.5,6.9,86,0.00,-SN,,0.02,WeatherDisplay:10.37,2013-03-14 01:19:00,
2013-03-13 21:24:00,27.6,24.0,30.10,NW,310,6.3,6.9,86,0.00,-SN,,0.02,WeatherDisplay:10.37,2013-03-14 01:24:00,
2013-03-13 21:29:00,27.7,24.1,30.11,West,267,6.4,8.1,86,0.00,-SN,,0.02,WeatherDisplay:10.37,2013-03-14 01:29:00,
2013-03-13 21:34:00,27.7,24.1,30.11,WNW,290,3.6,6.9,86,0.00,-SN,,0.02,WeatherDisplay:10.37,2013-03-14 01:34:00,
2013-03-13 21:39:00,27.8,23.6,30.11,West,278,7.2,9.2,84,0.00,-SN,,0.02,WeatherDisplay:10.37,2013-03-14 01:39:00,
2013-03-13 21:44:00,27.9,23.7,30.11,WNW,297,6.3,15.0,84,0.00,-SN,,0.02,WeatherDisplay:10.37,2013-03-14 01:44:00,
2013-03-13 21:49:00,28.0,23.2,30.11,West,267,4.2,11.5,82,0.00,-SN,,0.02,WeatherDisplay:10.37,2013-03-14 01:49:00,
2013-03-13 21:54:00,28.0,23.5,30.11,WNW,286,6.0,9.2,83,0.00,-SN,,0.02,WeatherDisplay:10.37,2013-03-14 01:54:00,
2013-03-13 21:59:00,28.0,23.5,30.11,WNW,300,6.3,15.0,83,0.00,-SN,,0.02,WeatherDisplay:10.37,2013-03-14 01:59:00,
2013-03-13 22:04:00,28.0,23.8,30.11,West,280,7.0,7.0,84,0.00,-SN,,0.02,WeatherDisplay:10.37,2013-03-14 02:04:00,
2013-03-13 22:09:00,28.0,23.8,30.11,WNW,284,5.8,11.0,84,0.00,-SN,,0.02,WeatherDisplay:10.37,2013-03-14 02:09:00,
2013-03-13 22:14:00,28.0,23.5,30.11,WNW,296,3.9,8.1,83,0.00,-SN,,0.02,WeatherDisplay:10.37,2013-03-14 02:14:00,
2013-03-13 22:19:00,28.0,23.5,30.12,SW,223,5.9,12.7,83,0.00,-SN,,0.02,WeatherDisplay:10.37,2013-03-14 02:19:00,
2013-03-13 22:24:00,27.9,23.4,30.12,West,274,3.1,5.0,83,0.00,-SN,,0.02,WeatherDisplay:10.37,2013-03-14 02:24:00,
2013-03-13 22:29:00,27.9,23.4,30.12,West,279,3.7,5.8,83,0.00,-SN,,0.02,WeatherDisplay:10.37,2013-03-14 02:29:00,
2013-03-13 22:34:00,27.9,23.4,30.12,WNW,292,5.5,11.5,83,0.00,-SN,,0.02,WeatherDisplay:10.37,2013-03-14 02:34:00,
2013-03-13 22:39:00,28.0,23.2,30.12,WSW,254,4.5,8.1,82,0.00,-SN,,0.02,WeatherDisplay:10.37,2013-03-14 02:39:00,
2013-03-13 22:44:00,28.1,23.3,30.12,WNW,288,5.0,5.0,82,0.00,-SN,,0.02,WeatherDisplay:10.37,2013-03-14 02:44:00,
2013-03-13 22:49:00,28.2,23.4,30.12,WNW,299,5.0,9.0,82,0.00,-SN,,0.02,WeatherDisplay:10.37,2013-03-14 02:49:00,
2013-03-13 22:54:00,28.3,23.5,30.12,West,275,5.7,11.5,82,0.00,-SN,,0.02,WeatherDisplay:10.37,2013-03-14 02:54:00,
2013-03-13 22:59:00,28.5,23.4,30.12,WNW,288,5.5,11.5,81,0.00,-SN,,0.02,WeatherDisplay:10.37,2013-03-14 02:59:00,
2013-03-13 23:04:00,28.7,23.3,30.12,WNW,296,6.7,11.0,80,0.00,-SN,,0.02,WeatherDisplay:10.37,2013-03-14 03:04:00,
2013-03-13 23:09:00,28.7,23.3,30.12,WNW,284,4.0,5.8,80,0.00,-SN,,0.02,WeatherDisplay:10.37,2013-03-14 03:09:00,
2013-03-13 23:14:00,28.8,23.1,30.12,West,277,5.7,15.0,79,0.00,-SN,,0.02,WeatherDisplay:10.37,2013-03-14 03:14:00,
2013-03-13 23:19:00,28.9,23.2,30.12,West,273,4.3,6.9,79,0.00,-SN,,0.02,WeatherDisplay:10.37,2013-03-14 03:19:00,
2013-03-13 23:24:00,28.9,23.2,30.12,NW,313,5.2,11.5,79,0.00,-SN,,0.02,WeatherDisplay:10.37,2013-03-14 03:24:00,
2013-03-13 23:29:00,28.9,23.2,30.12,WNW,294,4.8,8.1,79,0.00,-SN,,0.02,WeatherDisplay:10.37,2013-03-14 03:29:00,
2013-03-13 23:34:00,29.0,23.3,30.12,West,269,6.2,7.0,79,0.00,-SN,,0.02,WeatherDisplay:10.37,2013-03-14 03:34:00,
2013-03-13 23:39:00,29.1,23.1,30.12,West,279,9.2,12.0,78,0.00,-SN,,0.02,WeatherDisplay:10.37,2013-03-14 03:39:00,
2013-03-13 23:44:00,29.1,23.1,30.13,NW,306,5.9,6.9,78,0.00,-SN,,0.02,WeatherDisplay:10.37,2013-03-14 03:44:00,
2013-03-13 23:49:00,29.1,22.5,30.12,WNW,296,6.6,9.2,76,0.00,-SN,,0.02,WeatherDisplay:10.37,2013-03-14 03:49:00,
2013-03-13 23:54:00,29.2,22.6,30.13,WNW,298,5.4,8.1,76,0.00,-SN,,0.02,WeatherDisplay:10.37,2013-03-14 03:54:00,
2013-03-13 23:59:00,29.3,22.7,30.13,WNW,292,3.9,6.0,76,0.00,-SN,,0.02,WeatherDisplay:10.37,2013-03-14 03:59:00,